Thomasville, GA

6:39 AM EDT on May 28, 2018 (GMT -0400)
Thomasville Municipal

Weather History for KTVI - November, 2012

Change the Weather History Date:

Tuesday, November 20, 2012

  Actual Average (KMUL) Record (KMUL)
Temperature  
Mean Temperature 60 °F -  
Max Temperature 66 °F 69 °F 85 °F (1942)
Min Temperature 53 °F 48 °F 27 °F (1968)
Degree Days  
Heating Degree Days 6    
Growing Degree Days 10 (Base 50)    
Moisture  
Dew Point 53 °F    
Average Humidity 79    
Maximum Humidity 100    
Minimum Humidity 60    
Precipitation  
Precipitation 0.00 in - - ()
Sea Level Pressure  
Sea Level Pressure 30.12 in    
Wind  
Wind Speed 3 mph (NNW)    
Max Wind Speed 7 mph    
Max Gust Speed -    
Visibility 10 miles    
Events Rain    
Averages and records for this station are not official NWS values.
T = Trace of Precipitation, MM = Missing Value Source: NWS Daily Summary

Daily Weather History Graph

Daily Weather History Graph

Search for Another Location

Airport or City:

Astronomy

Nov. 20, 2012 Rise Set
Actual Time 7:06 AM EST 5:35 PM EST
Civil Twilight 6:41 AM EST 6:01 PM EST
Nautical Twilight 6:11 AM EST 6:30 PM EST
Astronomical Twilight 5:42 AM EST 6:59 PM EST
Moon 12:54 PM EST (11/20) No Moon Set
Length of Visible Light 11h 20m
Length of Day
10h 28m
Waxing Crescent, 51% of the Moon is Illuminated
Nov 20
Waxing Crescent
Nov 28
Full
Dec 6
Last Quarter
Dec 13
New
Dec 20
First Quarter

Hourly Weather History & Observations

Time (EST) Temp. Dew Point Humidity Pressure Visibility Wind Dir Wind Speed Gust Speed Precip Events Conditions
12:15 AM 60.8 °F 53.6 °F 77% 30.16 in 10.0 mi NNW 3.5 mph - N/A   Overcast
12:35 AM 59.0 °F 53.6 °F 82% 30.15 in 10.0 mi Calm Calm - N/A   Overcast
12:55 AM 59.0 °F 53.6 °F 82% 30.15 in 10.0 mi Calm Calm - N/A   Overcast
1:15 AM 59.0 °F 53.6 °F 82% 30.15 in 10.0 mi NNW 3.5 mph - N/A   Overcast
1:35 AM 59.0 °F 53.6 °F 82% 30.14 in 10.0 mi NNW 4.6 mph - N/A   Overcast
1:55 AM 59.0 °F 53.6 °F 82% 30.14 in 10.0 mi NNW 4.6 mph - N/A   Overcast
2:15 AM 59.0 °F 53.6 °F 82% 30.14 in 10.0 mi NNW 4.6 mph - N/A   Overcast
2:55 AM 59.0 °F 53.6 °F 82% 30.13 in 10.0 mi North 4.6 mph - N/A   Overcast
3:15 AM 59.0 °F 53.6 °F 82% 30.13 in 10.0 mi North 3.5 mph - N/A   Overcast
6:55 AM 59.0 °F 53.6 °F 82% 30.15 in 10.0 mi NW 3.5 mph - N/A   Overcast
7:15 AM 59.0 °F 53.6 °F 82% 30.15 in 10.0 mi Calm Calm - N/A   Overcast
7:55 AM 59.0 °F 53.6 °F 82% 30.16 in 10.0 mi Calm Calm - N/A   Overcast
8:15 AM 59.0 °F 53.6 °F 82% 30.17 in 10.0 mi Calm Calm - N/A   Overcast
8:35 AM 59.0 °F 53.6 °F 82% 30.17 in 10.0 mi Calm Calm - N/A   Overcast
8:55 AM 59.0 °F 53.6 °F 82% 30.17 in 10.0 mi Calm Calm - N/A   Overcast
9:15 AM 60.8 °F 53.6 °F 77% 30.18 in 10.0 mi Calm Calm - N/A   Overcast
9:35 AM 60.8 °F 51.8 °F 72% 30.18 in 10.0 mi North 3.5 mph - N/A   Overcast
9:55 AM 60.8 °F 51.8 °F 72% 30.19 in 10.0 mi North 3.5 mph - N/A   Overcast
10:15 AM 60.8 °F 51.8 °F 72% 30.19 in 10.0 mi NNW 3.5 mph - N/A   Overcast
10:35 AM 60.8 °F 51.8 °F 72% 30.19 in 7.0 mi North 3.5 mph - N/A   Overcast
10:55 AM 60.8 °F 51.8 °F 72% 30.18 in 1.8 mi North 3.5 mph - N/A   Haze
11:15 AM 60.8 °F 51.8 °F 72% 30.17 in 3.0 mi North 3.5 mph - N/A   Haze
11:35 AM 60.8 °F 51.8 °F 72% 30.17 in 10.0 mi North 4.6 mph - N/A   Overcast
11:55 AM 62.6 °F 51.8 °F 68% 30.16 in 10.0 mi North 4.6 mph - N/A   Overcast
12:15 PM 62.6 °F 51.8 °F 68% 30.14 in 7.0 mi North 3.5 mph - N/A   Overcast
12:35 PM 62.6 °F 51.8 °F 68% 30.13 in 4.0 mi NNE 4.6 mph - N/A   Haze
12:55 PM 62.6 °F 51.8 °F 68% 30.13 in 10.0 mi North 5.8 mph - N/A   Overcast
1:15 PM 64.4 °F 51.8 °F 64% 30.12 in 10.0 mi Calm Calm - N/A   Overcast
1:35 PM 66.2 °F 51.8 °F 60% 30.11 in 10.0 mi NNW 5.8 mph - N/A   Scattered Clouds
1:55 PM 66.2 °F 51.8 °F 60% 30.10 in 10.0 mi North 6.9 mph - N/A   Mostly Cloudy
2:15 PM 64.4 °F 51.8 °F 64% 30.09 in 10.0 mi North 5.8 mph - N/A   Overcast
2:35 PM 64.4 °F 51.8 °F 64% 30.08 in 10.0 mi North 4.6 mph - N/A   Overcast
2:55 PM 64.4 °F 51.8 °F 64% 30.08 in 10.0 mi NE 4.6 mph - N/A   Mostly Cloudy
3:15 PM 64.4 °F 53.6 °F 68% 30.08 in 10.0 mi North 3.5 mph - N/A   Clear
3:35 PM 64.4 °F 53.6 °F 68% 30.08 in 10.0 mi North 5.8 mph - N/A   Clear
3:55 PM 64.4 °F 51.8 °F 64% 30.07 in 10.0 mi NNE 3.5 mph - N/A   Clear
4:15 PM 64.4 °F 53.6 °F 68% 30.08 in 10.0 mi North 3.5 mph - N/A   Scattered Clouds
4:35 PM 64.4 °F 53.6 °F 68% 30.08 in 10.0 mi Calm Calm - N/A   Scattered Clouds
4:55 PM 64.4 °F 53.6 °F 68% 30.08 in 10.0 mi Calm Calm - N/A   Mostly Cloudy
5:15 PM 62.6 °F 53.6 °F 72% 30.08 in 10.0 mi Calm Calm - N/A   Scattered Clouds
5:35 PM 60.8 °F 53.6 °F 77% 30.08 in 10.0 mi Calm Calm - N/A   Scattered Clouds
5:55 PM 59.0 °F 53.6 °F 82% 30.07 in 10.0 mi Calm Calm - N/A   Scattered Clouds
6:15 PM 59.0 °F 53.6 °F 82% 30.08 in 10.0 mi Calm Calm - N/A   Mostly Cloudy
6:35 PM 59.0 °F 53.6 °F 82% 30.09 in 10.0 mi NNW 3.5 mph - N/A   Scattered Clouds
6:55 PM 59.0 °F 53.6 °F 82% 30.09 in 10.0 mi NNW 3.5 mph - N/A Rain Rain
7:15 PM 59.0 °F 53.6 °F 82% 30.10 in 10.0 mi NNW 3.5 mph - N/A Rain Light Rain
7:35 PM 57.2 °F 53.6 °F 88% 30.11 in 10.0 mi NW 3.5 mph - N/A   Scattered Clouds
7:55 PM 57.2 °F 53.6 °F 88% 30.11 in 10.0 mi Calm Calm - N/A   Clear
8:15 PM 53.6 °F 53.6 °F 100% 30.11 in 10.0 mi Calm Calm - N/A   Clear
8:35 PM 55.4 °F 53.6 °F 94% 30.11 in 10.0 mi Calm Calm - N/A   Clear
8:55 PM 53.6 °F 51.8 °F 94% 30.11 in 10.0 mi Calm Calm - N/A   Clear
9:15 PM 53.6 °F 53.6 °F 100% 30.12 in 10.0 mi Calm Calm - N/A   Mostly Cloudy
9:55 PM 55.4 °F 53.6 °F 94% 30.12 in 10.0 mi Calm Calm - N/A   Overcast
10:15 PM 55.4 °F 51.8 °F 88% 30.11 in 10.0 mi Calm Calm - N/A   Overcast
10:35 PM 53.6 °F 53.6 °F 100% 30.11 in 10.0 mi Calm Calm - N/A   Scattered Clouds
10:55 PM 53.6 °F 51.8 °F 94% 30.11 in 10.0 mi NW 3.5 mph - N/A   Scattered Clouds
11:15 PM 53.6 °F 51.8 °F 94% 30.11 in 10.0 mi NW 3.5 mph - N/A   Scattered Clouds
11:35 PM 53.6 °F 51.8 °F 94% 30.11 in 10.0 mi Calm Calm - N/A   Scattered Clouds
11:55 PM 53.6 °F 53.6 °F 100% 30.11 in 10.0 mi NW 3.5 mph - N/A   Scattered Clouds